Weather History for KAOO - November, 2012

Change the Weather History Date:

Saturday, November 3, 2012

  Actual Average Record
Temperature  
Mean Temperature 38 °F 46 °F  
Max Temperature 41 °F 55 °F 76 °F (1961)
Min Temperature 35 °F 37 °F 17 °F (1951)
Degree Days  
Heating Degree Days 27 19  
Month to date heating degree days 56  
Since 1 July heating degree days 663  
Cooling Degree Days 0 0  
Month to date cooling degree days 0  
Year to date cooling degree days 522  
Moisture  
Dew Point 30 °F    
Average Humidity 71    
Maximum Humidity 81    
Minimum Humidity 60    
Precipitation  
Precipitation 0.00 in 0.11 in 0.98 in (1970)
Month to date precipitation 0.32  
Year to date precipitation 27.30  
Sea Level Pressure  
Sea Level Pressure 30.03 in    
Wind  
Wind Speed 11 mph (NW)    
Max Wind Speed 17 mph    
Max Gust Speed 28 mph    
Visibility 10 miles    
Events Rain , Snow    
T = Trace of Precipitation, MM = Missing Value Source: NWS Daily Summary

Daily Weather History Graph

Daily Weather History Graph

Search for Another Location

Airport or City:

Trip Planner

Search our weather history database for the weather conditions in past years. The results will help you decide how hot, cold, wet, or windy it might be!

Date:

Astronomy

Nov. 03, 2012 Rise Set
Actual Time 7:45 AM EDT 6:07 PM EDT
Civil Twilight 7:17 AM EDT 6:35 PM EDT
Nautical Twilight 6:45 AM EDT 7:08 PM EDT
Astronomical Twilight 6:13 AM EDT 7:39 PM EDT
Moon 9:46 PM EDT (11/3) 11:48 AM EDT (11/3)
Length of Visible Light 11h 18m
Length of Day
10h 21m
Waning Gibbous, 80% of the Moon is Illuminated
Nov 3
Waning Gibbous
Nov 6
Last Quarter
Nov 13
New
Nov 20
First Quarter
Nov 28
Full

Hourly Weather History & Observations

Time (EDT) Temp. Windchill Dew Point Humidity Pressure Visibility Wind Dir Wind Speed Gust Speed Precip Events Conditions
1:53 AM 37.0 °F 29.8 °F 28.0 °F 70% 29.95 in 10.0 mi NW 10.4 mph - N/A   Overcast
2:53 AM 37.0 °F 30.4 °F 28.9 °F 73% 29.95 in 10.0 mi NW 9.2 mph - N/A   Overcast
3:53 AM 36.0 °F 27.5 °F 28.9 °F 76% 29.96 in 8.0 mi NW 12.7 mph - 0.00 in Snow Light Snow
4:53 AM 36.0 °F 29.0 °F 28.9 °F 76% 29.97 in 10.0 mi WNW 9.2 mph - 0.00 in   Overcast
5:53 AM 36.0 °F 28.5 °F 28.9 °F 76% 29.99 in 10.0 mi NW 10.4 mph - N/A   Overcast
6:53 AM 35.1 °F 26.9 °F 28.9 °F 78% 30.01 in 10.0 mi NW 11.5 mph - N/A   Overcast
7:53 AM 36.0 °F 30.3 °F 28.9 °F 76% 30.02 in 10.0 mi WNW 6.9 mph 17.3 mph N/A   Overcast
8:53 AM 36.0 °F 28.5 °F 28.9 °F 76% 30.04 in 10.0 mi WNW 10.4 mph 18.4 mph N/A   Overcast
9:53 AM 37.0 °F 29.8 °F 30.0 °F 76% 30.05 in 10.0 mi NW 10.4 mph - N/A   Overcast
10:53 AM 39.0 °F 34.0 °F 30.0 °F 70% 30.05 in 10.0 mi NW 6.9 mph - N/A   Overcast
11:53 AM 37.9 °F 28.5 °F 30.9 °F 76% 30.05 in 10.0 mi NW 17.3 mph 24.2 mph 0.00 in   Overcast
12:22 PM 39.2 °F 30.5 °F 28.4 °F 65% 30.01 in 10.0 mi NW 16.1 mph 24.2 mph 0.00 in   Overcast
12:53 PM 39.9 °F 32.5 °F 28.9 °F 65% 30.04 in 10.0 mi NW 12.7 mph 24.2 mph 0.00 in   Overcast
1:00 PM 39.2 °F 31.6 °F 30.2 °F 70% 30.01 in 10.0 mi NW 12.7 mph 21.9 mph N/A   Overcast
1:38 PM 41.0 °F 32.5 °F 28.4 °F 61% 30.01 in 10.0 mi NW 17.3 mph 27.6 mph 0.00 in   Overcast
1:53 PM 39.9 °F 32.5 °F 30.0 °F 68% 30.04 in 10.0 mi NW 12.7 mph - 0.00 in   Overcast
2:35 PM 39.2 °F 32.5 °F 30.2 °F 70% 30.01 in 10.0 mi NW 10.4 mph - 0.00 in   Overcast
2:53 PM 39.0 °F 32.3 °F 32.0 °F 76% 30.05 in 10.0 mi NW 10.4 mph - 0.00 in Rain Light Rain
3:06 PM 39.2 °F 32.5 °F 30.2 °F 70% 30.01 in 10.0 mi WNW 10.4 mph - 0.00 in Rain Light Rain
3:16 PM 39.2 °F 32.5 °F 32.0 °F 75% 30.01 in 10.0 mi WNW 10.4 mph - 0.00 in   Overcast
3:32 PM 39.2 °F 31.6 °F 30.2 °F 70% 30.02 in 10.0 mi NW 12.7 mph - 0.00 in   Overcast
3:50 PM 39.2 °F 33.6 °F 33.8 °F 81% 30.02 in 10.0 mi WNW 8.1 mph - 0.00 in   Overcast
3:53 PM 39.0 °F 33.4 °F 33.1 °F 79% 30.06 in 10.0 mi NW 8.1 mph - 0.00 in   Overcast
4:31 PM 39.2 °F 32.5 °F 30.2 °F 70% 30.03 in 10.0 mi NW 10.4 mph - 0.00 in Rain Light Rain
4:41 PM 39.2 °F 31.6 °F 32.0 °F 75% 30.02 in 10.0 mi WNW 12.7 mph - 0.00 in Rain Light Rain
4:53 PM 39.0 °F 31.8 °F 32.0 °F 76% 30.06 in 10.0 mi NW 11.5 mph - 0.00 in   Overcast
5:53 PM 39.0 °F 33.4 °F 32.0 °F 76% 30.06 in 10.0 mi NNW 8.1 mph - N/A   Mostly Cloudy
6:53 PM 39.9 °F 36.7 °F 30.9 °F 70% 30.06 in 10.0 mi NNW 4.6 mph - N/A   Overcast
7:53 PM 39.9 °F 31.4 °F 27.0 °F 60% 30.08 in 10.0 mi NNW 16.1 mph 21.9 mph N/A   Overcast
8:53 PM 39.0 °F 31.8 °F 27.0 °F 62% 30.08 in 10.0 mi NW 11.5 mph 19.6 mph N/A   Overcast
9:53 PM 37.9 °F 30.9 °F 25.0 °F 60% 30.09 in 10.0 mi NNW 10.4 mph 20.7 mph N/A   Overcast
10:53 PM 37.9 °F 31.5 °F 25.0 °F 60% 30.10 in 10.0 mi NW 9.2 mph 20.7 mph N/A   Overcast
11:53 PM 37.9 °F 34.4 °F 26.1 °F 62% 30.09 in 10.0 mi North 4.6 mph - N/A   Overcast